When you browse on this site, cookies collect data to enhance your experience and personalize the content and advertising you see.
Visit our Privacy Policy to learn more. By continuing to use the site, you agree to this use of cookies and data.
  • In Italy
  • List of Countries
  • For 7 days
  • Water Temperature
  • Satellite Maps
  • Weather Map
  • Weather Widgets
  • user-avatar
    Login

    Hourly Weather Mazari Sharif

    Today, 22 March, Friday

    Time Temperature Precipitation Wind Pressure Humidity
    00:00 +10°C° 0.5 mm 1 mps 656 mmHg 68%
    01:00 +10°C° 0.5 mm 1 mps 655 mmHg 68%
    02:00 +10°C° 0.1 mm 1 mps 655 mmHg 66%
    03:00 +9°C° 0.1 mm 1 mps 655 mmHg 65%
    04:00 +9°C° 0.1 mm 1 mps 655 mmHg 64%
    05:00 +9°C° 0.1 mm 1 mps 655 mmHg 62%
    06:00 +10°C° 0.1 mm 1 mps 655 mmHg 61%
    07:00 +9°C° 0.1 mm 2 mps 655 mmHg 59%
    08:00 +12°C° 0.1 mm 2 mps 656 mmHg 52%
    09:00 +14°C° 0.1 mm 2 mps 656 mmHg 45%
    10:00 +15°C° 0.1 mm 2 mps 656 mmHg 38%
    11:00 +16°C° 0.1 mm 2 mps 656 mmHg 36%
    12:00 +17°C° 0.1 mm 2 mps 656 mmHg 34%
    13:00 +18°C° 0.1 mm 2 mps 655 mmHg 32%
    14:00 +17°C° 0.1 mm 3 mps 655 mmHg 35%
    15:00 +16°C° 0.1 mm 3 mps 654 mmHg 38%
    16:00 +14°C° 0.1 mm 4 mps 654 mmHg 41%
    17:00 +14°C° 0.3 mm 3 mps 654 mmHg 45%
    18:00 +14°C° 0.3 mm 2 mps 654 mmHg 50%
    19:00 +13°C° 0.3 mm 2 mps 654 mmHg 54%
    20:00 +13°C° 0.4 mm 2 mps 654 mmHg 57%
    21:00 +12°C° 0.4 mm 2 mps 654 mmHg 60%
    22:00 +12°C° 0.4 mm 1 mps 654 mmHg 63%
    23:00 +11°C° 0.4 mm 1 mps 654 mmHg 68%

    Tomorrow, 23 March, Saturday

    Time Temperature Precipitation Wind Pressure Humidity
    00:00 +11°C° 0.4 mm 1 mps 654 mmHg 72%
    01:00 +10°C° 0.4 mm 1 mps 654 mmHg 77%
    02:00 +10°C° 0.3 mm 1 mps 654 mmHg 80%
    03:00 +8°C° 0.3 mm 2 mps 654 mmHg 83%
    04:00 +8°C° 0.3 mm 2 mps 654 mmHg 86%
    05:00 +8°C° 0.3 mm 2 mps 654 mmHg 86%
    06:00 +8°C° 0.3 mm 2 mps 655 mmHg 86%
    07:00 +8°C° 0.3 mm 2 mps 655 mmHg 86%
    08:00 +8°C° 0.2 mm 3 mps 655 mmHg 82%
    09:00 +9°C° 0.2 mm 3 mps 656 mmHg 79%
    10:00 +9°C° 0.2 mm 3 mps 656 mmHg 75%
    11:00 +9°C° 0.4 mm 3 mps 656 mmHg 74%
    12:00 +8°C° 0.4 mm 4 mps 656 mmHg 74%
    13:00 +8°C° 0.4 mm 4 mps 655 mmHg 73%
    14:00 +9°C° 0.1 mm 3 mps 655 mmHg 71%
    15:00 +9°C° 0.1 mm 2 mps 656 mmHg 69%
    16:00 +10°C° 0.1 mm 2 mps 656 mmHg 66%
    17:00 +10°C° 0 mm 1 mps 656 mmHg 68%
    18:00 +10°C° 0 mm 1 mps 656 mmHg 70%
    19:00 +9°C° 0 mm 1 mps 656 mmHg 72%
    20:00 +9°C° 0 mm 1 mps 656 mmHg 73%
    21:00 +8°C° 0 mm 2 mps 656 mmHg 74%
    22:00 +8°C° 0 mm 2 mps 656 mmHg 76%
    23:00 +8°C° 0 mm 2 mps 656 mmHg 77%

    Day after tomorrow, 24 March, Sunday

    Time Temperature Precipitation Wind Pressure Humidity
    00:00 +8°C° 0 mm 2 mps 656 mmHg 78%
    01:00 +8°C° 0 mm 2 mps 656 mmHg 79%
    02:00 +7°C° 0 mm 2 mps 655 mmHg 78%
    03:00 +7°C° 0 mm 2 mps 655 mmHg 77%
    04:00 +7°C° 0 mm 2 mps 655 mmHg 77%
    05:00 +8°C° 0 mm 2 mps 655 mmHg 72%
    06:00 +8°C° 0 mm 2 mps 655 mmHg 66%
    07:00 +9°C° 0 mm 2 mps 656 mmHg 61%
    08:00 +12°C° 0 mm 2 mps 656 mmHg 52%
    09:00 +14°C° 0 mm 2 mps 656 mmHg 42%
    10:00 +15°C° 0 mm 1 mps 657 mmHg 33%
    11:00 +16°C° 0 mm 2 mps 656 mmHg 31%
    12:00 +17°C° 0 mm 2 mps 656 mmHg 29%
    13:00 +18°C° 0 mm 2 mps 656 mmHg 28%
    14:00 +18°C° 0.2 mm 2 mps 656 mmHg 29%
    15:00 +18°C° 0.2 mm 2 mps 655 mmHg 31%
    16:00 +18°C° 0.2 mm 2 mps 655 mmHg 32%
    17:00 +16°C° 0.1 mm 2 mps 655 mmHg 38%
    18:00 +15°C° 0.1 mm 2 mps 655 mmHg 44%
    19:00 +14°C° 0.1 mm 2 mps 655 mmHg 49%
    20:00 +14°C° 0 mm 2 mps 655 mmHg 50%
    21:00 +13°C° 0 mm 2 mps 655 mmHg 50%
    22:00 +13°C° 0 mm 2 mps 655 mmHg 50%
    23:00 +13°C° 0 mm 2 mps 655 mmHg 49%

    25 March, Monday

    Time Temperature Precipitation Wind Pressure Humidity
    00:00 +12°C° 0 mm 2 mps 655 mmHg 48%
    01:00 +12°C° 0 mm 2 mps 654 mmHg 47%
    02:00 +12°C° 0 mm 2 mps 654 mmHg 45%
    03:00 +10°C° 0 mm 2 mps 654 mmHg 43%
    04:00 +10°C° 0 mm 2 mps 654 mmHg 41%
    05:00 +12°C° 0 mm 2 mps 654 mmHg 38%
    06:00 +12°C° 0 mm 2 mps 654 mmHg 35%
    07:00 +13°C° 0 mm 2 mps 655 mmHg 33%
    08:00 +15°C° 0 mm 2 mps 655 mmHg 28%
    09:00 +17°C° 0 mm 2 mps 655 mmHg 23%
    10:00 +18°C° 0 mm 2 mps 656 mmHg 18%
    11:00 +19°C° 0 mm 2 mps 655 mmHg 18%
    12:00 +20°C° 0 mm 2 mps 655 mmHg 17%
    13:00 +21°C° 0 mm 2 mps 655 mmHg 16%
    14:00 +20°C° 0 mm 2 mps 655 mmHg 18%
    15:00 +20°C° 0 mm 2 mps 655 mmHg 20%
    16:00 +19°C° 0 mm 2 mps 655 mmHg 22%
    17:00 +18°C° 0.1 mm 2 mps 655 mmHg 26%
    18:00 +17°C° 0.1 mm 2 mps 655 mmHg 29%
    19:00 +17°C° 0.1 mm 2 mps 656 mmHg 33%
    20:00 +16°C° 0.1 mm 2 mps 656 mmHg 34%
    21:00 +16°C° 0.1 mm 2 mps 656 mmHg 36%
    22:00 +16°C° 0.1 mm 2 mps 656 mmHg 37%
    23:00 +15°C° 0.2 mm 2 mps 656 mmHg 39%

    26 March, Tuesday

    Time Temperature Precipitation Wind Pressure Humidity
    00:00 +15°C° 0.2 mm 2 mps 656 mmHg 41%
    01:00 +15°C° 0.2 mm 2 mps 655 mmHg 43%
    02:00 +15°C° 0.2 mm 2 mps 655 mmHg 43%
    03:00 +14°C° 0.2 mm 2 mps 655 mmHg 44%
    04:00 +14°C° 0.2 mm 2 mps 656 mmHg 44%
    05:00 +14°C° 0.1 mm 2 mps 656 mmHg 42%
    06:00 +14°C° 0.1 mm 3 mps 656 mmHg 41%
    07:00 +16°C° 0.1 mm 3 mps 656 mmHg 39%
    08:00 +17°C° 0 mm 3 mps 657 mmHg 34%
    09:00 +19°C° 0 mm 3 mps 657 mmHg 30%
    10:00 +21°C° 0 mm 3 mps 658 mmHg 26%
    11:00 +22°C° 0 mm 3 mps 657 mmHg 24%
    12:00 +22°C° 0 mm 3 mps 657 mmHg 23%
    13:00 +24°C° 0 mm 3 mps 656 mmHg 21%
    14:00 +24°C° 0 mm 3 mps 656 mmHg 22%
    15:00 +24°C° 0 mm 3 mps 656 mmHg 23%
    16:00 +24°C° 0 mm 3 mps 655 mmHg 24%
    17:00 +22°C° 0.1 mm 3 mps 655 mmHg 27%
    18:00 +21°C° 0.1 mm 3 mps 655 mmHg 30%
    19:00 +20°C° 0.1 mm 2 mps 655 mmHg 34%
    20:00 +19°C° 0.3 mm 3 mps 655 mmHg 36%
    21:00 +19°C° 0.3 mm 3 mps 655 mmHg 39%
    22:00 +18°C° 0.3 mm 3 mps 655 mmHg 41%
    23:00 +18°C° 0.8 mm 4 mps 654 mmHg 45%

    27 March, Wednesday

    Time Temperature Precipitation Wind Pressure Humidity
    00:00 +17°C° 0.8 mm 4 mps 654 mmHg 49%
    01:00 +17°C° 0.8 mm 4 mps 653 mmHg 53%
    02:00 +17°C° 0.9 mm 4 mps 653 mmHg 55%
    03:00 +17°C° 0.9 mm 4 mps 653 mmHg 57%
    04:00 +15°C° 0.9 mm 4 mps 653 mmHg 59%
    05:00 +17°C° 0.6 mm 3 mps 654 mmHg 57%
    06:00 +17°C° 0.6 mm 3 mps 654 mmHg 55%
    07:00 +18°C° 0.6 mm 3 mps 654 mmHg 53%
    08:00 +19°C° 0.4 mm 2 mps 654 mmHg 48%
    09:00 +20°C° 0.4 mm 2 mps 654 mmHg 44%
    10:00 +21°C° 0.4 mm 2 mps 655 mmHg 39%
    11:00 +22°C° 0.5 mm 3 mps 654 mmHg 39%
    12:00 +22°C° 0.5 mm 3 mps 654 mmHg 39%
    13:00 +22°C° 0.5 mm 4 mps 654 mmHg 39%
    14:00 +22°C° 1 mm 3 mps 654 mmHg 41%
    15:00 +21°C° 1 mm 3 mps 654 mmHg 43%
    16:00 +21°C° 1 mm 3 mps 654 mmHg 45%
    17:00 +20°C° 0.6 mm 3 mps 654 mmHg 51%
    18:00 +19°C° 0.6 mm 2 mps 654 mmHg 57%
    19:00 +17°C° 0.6 mm 2 mps 654 mmHg 63%
    20:00 +17°C° 0.7 mm 2 mps 655 mmHg 66%
    21:00 +16°C° 0.7 mm 2 mps 655 mmHg 70%
    22:00 +14°C° 0.7 mm 3 mps 656 mmHg 73%
    23:00 +13°C° 0.9 mm 3 mps 656 mmHg 77%
    Show more